Content
SEND FEEDBACK

Daily
Averages
Monthly
Summary
Canada

SOREL, QUEBEC


Home > North America > Canada > Quebec
Elevation: 49 feet     Latitude: 46 28N     Longitude: 073 45W

WEATHER
 
SELECT A DAY
Number of Records: 198,773;   Date Range: 1/1/95 - 9/17/14
 
SHARE

PRINT THIS DATA

[ ← Previous Day ]
WEATHER ALMANAC - SEPTEMBER 28, 2013
[ Next Day → ]
[ °C ]   °F
Weather ElementAverageHighLow
Temperature59.1 °F71.6 °F (4:00 pm)48.2 °F (3:00 am)
Dewpoint50.8 °F55.4 °F (9:00 am)46.4 °F (3:00 am)
Humidity76.1 %100 % (8:38 am)41 % (2:00 pm)
Barometer30.31 in30.38 in (10:00 am)30.22 in (11:00 pm)
Wind Speed2.9 mph5.8 mph (12:00 pm)
Weather ElementAverage
Visibility13.1 mi
Wind DirectionSE (135.6 °)

Weather ElementTotal
Precipitation---
Heating Degree Days5.1 (Base 65)
Growing Degree Days9.9 (Base 50)
Averaged from 32 records on September 28, 2013
WEATHER CONDITIONS BREAKOUT
WIND DIRECTION BREAKOUT
WEATHER BY HOUR - SEPTEMBER 28, 2013
[ °C ]   °F
Local TimeTemperatureDewpointHumidityBarometerVisibilityWind DirectionWind SpeedGust SpeedPrecipitationEventsConditions
1:00 AM51.8 °F50.0 °F94 %30.30 in15.0 miCalmFogShallow Fog
2:00 AM51.0 °F49.0 °F92 %30.31 in15.0 miWNW (290°)2.3 mph
2:00 AM51.8 °F50.0 °F94 %30.31 in15.0 miWNW (300°)2.3 mphClear
3:00 AM48.2 °F46.4 °F93 %30.32 in15.0 miCalmFogShallow Fog
4:00 AM50.0 °F48.2 °F94 %30.32 in15.0 miNNW (330°)2.3 mphPartly Cloudy
5:00 AM50.0 °F48.2 °F94 %30.33 in15.0 miCalmFogShallow Fog
6:00 AM48.2 °F46.4 °F93 %30.34 in15.0 miNE (40°)3.5 mphPartly Cloudy
7:00 AM48.2 °F46.4 °F93 %30.35 in12.0 miCalmFogShallow Fog
7:52 AM51.8 °F50.0 °F94 %30.37 in8.0 miCalmMostly Cloudy
8:00 AM51.0 °F50.0 °F94 %30.37 in5.0 miNE (40°)1.2 mphMist
8:00 AM51.8 °F50.0 °F94 %30.37 in5.0 miCalmMostly Cloudy
8:27 AM55.4 °F53.6 °F94 %30.36 in0.1 miSSE (160°)3.5 mphFogFog
8:38 AM53.6 °F53.6 °F100 %30.36 in0.5 miSouth (180°)4.6 mphFogFog
9:00 AM55.4 °F55.4 °F100 %30.36 in1.5 miSouth (170°)3.5 mphMostly Cloudy
9:23 AM55.4 °F55.4 °F100 %30.37 in2.0 miSouth (190°)4.6 mphScattered Clouds
9:35 AM57.2 °F55.4 °F94 %30.37 in4.0 miSSW (200°)3.5 mphPartly Cloudy
10:00 AM59.0 °F53.6 °F82 %30.38 in10.0 miSW (230°)3.5 mphPartly Cloudy
11:00 AM62.6 °F53.6 °F72 %30.37 in15.0 miCalmPartly Cloudy
12:00 PM66.2 °F53.6 °F64 %30.36 in15.0 miSouth (170°)5.8 mphPartly Cloudy
1:00 PM68.0 °F51.8 °F56 %30.34 in15.0 miSouth (180°)5.8 mphPartly Cloudy
2:00 PM69.0 °F50.0 °F41 %30.31 in15.0 miSW (220°)4.6 mphScattered Clouds
2:00 PM69.8 °F50.0 °F49 %30.31 in15.0 miSSW (210°)5.8 mphPartly Cloudy
3:00 PM69.8 °F51.8 °F53 %30.29 in15.0 miSW (230°)2.3 mphPartly Cloudy
4:00 PM71.6 °F51.8 °F50 %30.28 in15.0 miNW (310°)4.6 mphPartly Cloudy
5:00 PM71.6 °F50.0 °F46 %30.26 in30.0 miCalmPartly Cloudy
6:00 PM69.8 °F51.8 °F53 %30.25 in30.0 miSE (140°)4.6 mphPartly Cloudy
7:00 PM68.0 °F50.0 °F52 %30.24 in25.0 miESE (120°)5.8 mphPartly Cloudy
8:00 PM66.0 °F49.0 °F45 %30.24 in15.0 miESE (120°)4.6 mph
8:00 PM66.2 °F50.0 °F56 %30.24 in15.0 miESE (120°)4.6 mphClear
9:00 PM62.6 °F50.0 °F63 %30.23 in15.0 miESE (120°)2.3 mphClear
10:00 PM60.8 °F50.0 °F68 %30.23 in15.0 miSE (140°)2.3 mphClear
11:00 PM60.8 °F50.0 °F68 %30.22 in15.0 miSE (130°)3.5 mphClear
Hourly data recorded from CYUL, located miles away from Sorel, Quebec







STORIES FROM OUR PARTNERS